Year,Month,Day,Hour,Minute,Value (Times are PST for temperature in C)
2023,04,27,08,17,9.00
2023,04,27,08,18,9.00
2023,04,27,08,19,8.90
2023,04,27,08,20,8.90
2023,04,27,08,21,8.90
2023,04,27,08,22,8.90
2023,04,27,08,23,8.90
2023,04,27,08,24,8.90
2023,04,27,08,25,8.90
2023,04,27,08,26,9.00
2023,04,27,08,27,9.00
2023,04,27,08,28,9.10
2023,04,27,08,29,9.20
2023,04,27,08,30,9.20
2023,04,27,08,31,9.30
2023,04,27,08,32,9.30
2023,04,27,08,33,9.30
2023,04,27,08,34,9.30
2023,04,27,08,35,9.30
2023,04,27,08,36,9.40
2023,04,27,08,37,9.40
2023,04,27,08,38,9.40
2023,04,27,08,39,9.50
2023,04,27,08,40,9.50
2023,04,27,08,41,9.50
2023,04,27,08,42,9.40
2023,04,27,08,43,9.40
2023,04,27,08,44,9.50
2023,04,27,08,45,9.60
2023,04,27,08,46,9.60
2023,04,27,08,47,9.70
2023,04,27,08,48,9.70
2023,04,27,08,49,9.70
2023,04,27,08,50,9.80
2023,04,27,08,51,9.80
2023,04,27,08,52,9.90
2023,04,27,08,53,9.90
2023,04,27,08,54,9.90
2023,04,27,08,55,9.80
2023,04,27,08,56,9.80
2023,04,27,08,57,9.80
2023,04,27,08,58,9.80
2023,04,27,08,59,9.90
2023,04,27,09,00,9.90
2023,04,27,09,01,9.90
2023,04,27,09,02,9.90
2023,04,27,09,03,9.90
2023,04,27,09,04,9.90
2023,04,27,09,05,9.90
2023,04,27,09,06,9.90
2023,04,27,09,07,9.90
2023,04,27,09,08,10.00
2023,04,27,09,09,10.00
2023,04,27,09,10,10.10
2023,04,27,09,11,10.10
2023,04,27,09,12,10.20
2023,04,27,09,13,10.20
2023,04,27,09,14,10.20
2023,04,27,09,15,10.30
2023,04,27,09,16,10.30
2023,04,27,09,17,10.30
2023,04,27,09,18,10.30
2023,04,27,09,19,10.30
2023,04,27,09,20,10.30
2023,04,27,09,21,10.30
2023,04,27,09,22,10.20
2023,04,27,09,23,10.20
2023,04,27,09,24,10.10
2023,04,27,09,25,10.10
2023,04,27,09,26,10.10
2023,04,27,09,27,10.10
2023,04,27,09,28,10.10
2023,04,27,09,29,10.10
2023,04,27,09,30,10.10
2023,04,27,09,31,10.10
2023,04,27,09,32,10.10
2023,04,27,09,33,10.10
2023,04,27,09,34,10.10
2023,04,27,09,35,10.10
2023,04,27,09,36,10.10
2023,04,27,09,37,10.10
2023,04,27,09,38,10.10
2023,04,27,09,39,10.10
2023,04,27,09,40,10.10
2023,04,27,09,41,10.20
2023,04,27,09,42,10.20
2023,04,27,09,43,10.30
2023,04,27,09,44,10.30
2023,04,27,09,45,10.40
2023,04,27,09,46,10.40
2023,04,27,09,47,10.50
2023,04,27,09,48,10.50
2023,04,27,09,49,10.40
2023,04,27,09,50,10.40
2023,04,27,09,51,10.40
2023,04,27,09,52,10.50
2023,04,27,09,53,10.60
2023,04,27,09,54,10.60
2023,04,27,09,55,10.70
2023,04,27,09,56,10.70
2023,04,27,09,57,10.70
2023,04,27,09,58,10.80
2023,04,27,09,59,10.80
2023,04,27,10,00,10.90
2023,04,27,10,01,10.90
2023,04,27,10,02,10.90
2023,04,27,10,03,11.00
2023,04,27,10,04,11.10
2023,04,27,10,05,11.10
2023,04,27,10,06,11.20
2023,04,27,10,07,11.20
2023,04,27,10,08,11.30
2023,04,27,10,09,11.30
2023,04,27,10,10,11.30
2023,04,27,10,11,11.30
2023,04,27,10,12,11.30
2023,04,27,10,13,11.30
2023,04,27,10,14,11.40
2023,04,27,10,15,11.40
2023,04,27,10,16,11.40
2023,04,27,10,17,11.50
2023,04,27,10,18,11.50
2023,04,27,10,19,11.60
2023,04,27,10,20,11.70
2023,04,27,10,21,11.70
2023,04,27,10,22,11.70
2023,04,27,10,23,11.70
2023,04,27,10,24,11.70
2023,04,27,10,25,11.70
2023,04,27,10,26,11.70
2023,04,27,10,27,11.80
2023,04,27,10,28,11.80
2023,04,27,10,29,11.80
2023,04,27,10,30,11.90
2023,04,27,10,31,12.00
2023,04,27,10,32,12.10
2023,04,27,10,33,12.10
2023,04,27,10,34,12.20
2023,04,27,10,35,12.20
2023,04,27,10,36,12.20
2023,04,27,10,37,12.20
2023,04,27,10,38,12.20
2023,04,27,10,39,12.20
2023,04,27,10,40,12.20
2023,04,27,10,41,12.20
2023,04,27,10,42,12.20
2023,04,27,10,43,12.30
2023,04,27,10,44,12.40
2023,04,27,10,45,12.30
2023,04,27,10,46,12.30
2023,04,27,10,47,12.20
2023,04,27,10,48,12.20
2023,04,27,10,49,12.30
2023,04,27,10,50,12.40
2023,04,27,10,51,12.50
2023,04,27,10,52,12.60
2023,04,27,10,53,12.70
2023,04,27,10,54,12.80
2023,04,27,10,55,12.80
2023,04,27,10,56,12.80
2023,04,27,10,57,12.70
2023,04,27,10,58,12.60
2023,04,27,10,59,12.60
2023,04,27,11,00,12.60
2023,04,27,11,01,12.60
2023,04,27,11,02,12.60
2023,04,27,11,03,12.60
2023,04,27,11,04,12.60
2023,04,27,11,05,12.60
2023,04,27,11,06,12.70
2023,04,27,11,07,12.70
2023,04,27,11,08,12.70
2023,04,27,11,09,12.70
2023,04,27,11,10,12.80
2023,04,27,11,11,12.80
2023,04,27,11,12,12.80
2023,04,27,11,13,12.80
2023,04,27,11,14,12.80
2023,04,27,11,15,12.80
2023,04,27,11,16,12.80
2023,04,27,11,17,12.80
2023,04,27,11,18,12.90
2023,04,27,11,19,12.90
2023,04,27,11,20,12.90
2023,04,27,11,21,12.80
2023,04,27,11,22,12.90
2023,04,27,11,23,12.90
2023,04,27,11,24,12.90
2023,04,27,11,25,12.90
2023,04,27,11,26,12.90
2023,04,27,11,27,12.90
2023,04,27,11,28,12.90
2023,04,27,11,29,12.90
2023,04,27,11,30,12.80
2023,04,27,11,31,12.90
2023,04,27,11,32,12.90
2023,04,27,11,33,13.00
2023,04,27,11,34,13.00
2023,04,27,11,35,13.00
2023,04,27,11,36,13.10
2023,04,27,11,37,13.10
2023,04,27,11,38,13.10
2023,04,27,11,39,13.20
2023,04,27,11,40,13.20
2023,04,27,11,41,13.20
2023,04,27,11,42,13.20
2023,04,27,11,43,13.30
2023,04,27,11,44,13.40
2023,04,27,11,45,13.50
2023,04,27,11,46,13.60
2023,04,27,11,47,13.70
2023,04,27,11,48,13.60
2023,04,27,11,49,13.60
2023,04,27,11,50,13.50
2023,04,27,11,51,13.50
2023,04,27,11,52,13.40
2023,04,27,11,53,13.40
2023,04,27,11,54,13.40
2023,04,27,11,55,13.40
2023,04,27,11,56,13.40
2023,04,27,11,57,13.40
2023,04,27,11,58,13.40
2023,04,27,11,59,13.40
2023,04,27,12,00,13.40
2023,04,27,12,01,13.60
2023,04,27,12,02,13.60
2023,04,27,12,03,13.60
2023,04,27,12,04,13.60
2023,04,27,12,05,13.60
2023,04,27,12,06,13.70
2023,04,27,12,07,13.60
2023,04,27,12,08,13.60
2023,04,27,12,09,13.60
2023,04,27,12,10,13.70
2023,04,27,12,11,13.70
2023,04,27,12,12,13.80
2023,04,27,12,13,13.80
2023,04,27,12,14,13.90
2023,04,27,12,15,14.00
2023,04,27,12,16,14.00
2023,04,27,12,17,14.00
2023,04,27,12,18,14.10
2023,04,27,12,19,14.10
2023,04,27,12,20,14.10
2023,04,27,12,21,14.10
2023,04,27,12,22,14.20
2023,04,27,12,23,14.20
2023,04,27,12,24,14.10
2023,04,27,12,25,14.00
2023,04,27,12,26,13.90
2023,04,27,12,27,13.80
2023,04,27,12,28,13.80
2023,04,27,12,29,13.80
2023,04,27,12,30,13.80
2023,04,27,12,31,13.80
2023,04,27,12,32,13.80
2023,04,27,12,33,13.90
2023,04,27,12,34,14.00
2023,04,27,12,35,14.10
2023,04,27,12,36,14.20
2023,04,27,12,37,14.20
2023,04,27,12,38,14.20
2023,04,27,12,39,14.20
2023,04,27,12,40,14.30
2023,04,27,12,41,14.30
2023,04,27,12,42,14.30
2023,04,27,12,43,14.20
2023,04,27,12,44,14.10
2023,04,27,12,45,14.10
2023,04,27,12,46,14.00
2023,04,27,12,47,14.00
2023,04,27,12,48,14.00
2023,04,27,12,49,14.00
2023,04,27,12,50,14.00
2023,04,27,12,51,14.00
2023,04,27,12,52,14.00
2023,04,27,12,53,14.00
2023,04,27,12,54,14.00
2023,04,27,12,55,13.90
2023,04,27,12,56,13.80
2023,04,27,12,57,13.80
2023,04,27,12,58,13.80
2023,04,27,12,59,13.90
2023,04,27,13,00,13.90
2023,04,27,13,01,13.90
2023,04,27,13,02,13.90
2023,04,27,13,03,13.90
2023,04,27,13,04,13.80
2023,04,27,13,05,13.80
2023,04,27,13,06,13.80
2023,04,27,13,07,13.70
2023,04,27,13,08,13.70
2023,04,27,13,09,13.70
2023,04,27,13,10,13.80
2023,04,27,13,11,13.90
2023,04,27,13,12,14.00
2023,04,27,13,13,14.10
2023,04,27,13,14,14.10
2023,04,27,13,15,14.20
2023,04,27,13,16,14.20
2023,04,27,13,17,14.20
2023,04,27,13,18,14.10
2023,04,27,13,19,14.10
2023,04,27,13,20,14.10
2023,04,27,13,21,14.10
2023,04,27,13,22,14.00
2023,04,27,13,23,14.00
2023,04,27,13,24,14.00
2023,04,27,13,25,13.90
2023,04,27,13,26,13.90
2023,04,27,13,27,13.90
2023,04,27,13,28,13.80
2023,04,27,13,29,13.80
2023,04,27,13,30,13.80
2023,04,27,13,31,13.90
2023,04,27,13,32,14.00
2023,04,27,13,33,14.00
2023,04,27,13,34,14.00
2023,04,27,13,35,13.90
2023,04,27,13,36,13.90
2023,04,27,13,37,13.90
2023,04,27,13,38,13.90
2023,04,27,13,39,13.90
2023,04,27,13,40,14.00
2023,04,27,13,41,14.00
2023,04,27,13,42,14.00
2023,04,27,13,43,14.10
2023,04,27,13,44,14.00
2023,04,27,13,45,14.00
2023,04,27,13,46,13.90
2023,04,27,13,47,13.90
2023,04,27,13,48,13.90
2023,04,27,13,49,13.90
2023,04,27,13,50,13.90
2023,04,27,13,51,13.90
2023,04,27,13,52,14.00
2023,04,27,13,53,14.00
2023,04,27,13,54,14.00
2023,04,27,13,55,14.00
2023,04,27,13,56,14.10
2023,04,27,13,57,14.00
2023,04,27,13,58,14.00
2023,04,27,13,59,14.00
2023,04,27,14,00,14.00
2023,04,27,14,01,14.00
2023,04,27,14,02,14.00
2023,04,27,14,03,14.10
2023,04,27,14,04,14.20
2023,04,27,14,05,14.20
2023,04,27,14,06,14.20
2023,04,27,14,07,14.20
2023,04,27,14,08,14.20
2023,04,27,14,09,14.30
2023,04,27,14,10,14.20
2023,04,27,14,11,14.20
2023,04,27,14,12,14.20
2023,04,27,14,13,14.20
2023,04,27,14,14,14.10
2023,04,27,14,15,14.10
2023,04,27,14,16,14.10
2023,04,27,14,17,14.10
2023,04,27,14,18,14.10
2023,04,27,14,19,14.10
2023,04,27,14,20,14.10
2023,04,27,14,21,14.10
2023,04,27,14,22,14.10
2023,04,27,14,23,14.20
2023,04,27,14,24,14.30
2023,04,27,14,25,14.40
2023,04,27,14,26,14.50
2023,04,27,14,27,14.50
2023,04,27,14,28,14.40
2023,04,27,14,29,14.40
2023,04,27,14,30,14.30
2023,04,27,14,31,14.30
2023,04,27,14,32,14.30
2023,04,27,14,33,14.30
2023,04,27,14,34,14.30
2023,04,27,14,35,14.40
2023,04,27,14,36,14.40
2023,04,27,14,37,14.40
2023,04,27,14,38,14.30
2023,04,27,14,39,14.30
2023,04,27,14,40,14.30
2023,04,27,14,41,14.30
2023,04,27,14,42,14.30
2023,04,27,14,43,14.40
2023,04,27,14,44,14.40
2023,04,27,14,45,14.50
2023,04,27,14,46,14.60
2023,04,27,14,47,14.60
2023,04,27,14,48,14.60
2023,04,27,14,49,14.70
2023,04,27,14,50,14.70
2023,04,27,14,51,14.80
2023,04,27,14,52,14.80
2023,04,27,14,53,14.90
2023,04,27,14,54,14.90
2023,04,27,14,55,15.00
2023,04,27,14,56,15.00
2023,04,27,14,57,15.00
2023,04,27,14,58,15.00
2023,04,27,14,59,15.00
2023,04,27,15,00,15.00
2023,04,27,15,01,14.90
2023,04,27,15,02,14.80
2023,04,27,15,03,14.80
2023,04,27,15,04,14.80
2023,04,27,15,05,14.80
2023,04,27,15,06,14.90
2023,04,27,15,07,14.90
2023,04,27,15,08,14.90
2023,04,27,15,09,14.90
2023,04,27,15,10,14.90
2023,04,27,15,11,15.00
2023,04,27,15,12,15.00
2023,04,27,15,13,15.10
2023,04,27,15,14,15.00
2023,04,27,15,15,15.00
2023,04,27,15,16,14.90
2023,04,27,15,17,14.90
2023,04,27,15,18,14.90
2023,04,27,15,19,14.90
2023,04,27,15,20,14.90
2023,04,27,15,21,15.00
2023,04,27,15,22,15.00
2023,04,27,15,23,15.10
2023,04,27,15,24,15.10
2023,04,27,15,25,15.20
2023,04,27,15,26,15.20
2023,04,27,15,27,15.20
2023,04,27,15,28,15.20
2023,04,27,15,29,15.20
2023,04,27,15,30,15.30
2023,04,27,15,31,15.30
2023,04,27,15,32,15.30
2023,04,27,15,33,15.30
2023,04,27,15,34,15.30
2023,04,27,15,35,15.30
2023,04,27,15,36,15.30
2023,04,27,15,37,15.30
2023,04,27,15,38,15.30
2023,04,27,15,39,15.20
2023,04,27,15,40,15.20
2023,04,27,15,41,15.20
2023,04,27,15,42,15.20
2023,04,27,15,43,15.30
2023,04,27,15,44,15.30
2023,04,27,15,45,15.30
2023,04,27,15,46,15.20
2023,04,27,15,47,15.10
2023,04,27,15,48,15.10
2023,04,27,15,49,15.00
2023,04,27,15,50,15.00
2023,04,27,15,51,15.00
2023,04,27,15,52,15.00
2023,04,27,15,53,15.00
2023,04,27,15,54,15.00
2023,04,27,15,55,15.00
2023,04,27,15,56,15.10
2023,04,27,15,57,15.10
2023,04,27,15,58,15.10
2023,04,27,15,59,15.10
2023,04,27,16,00,15.10
2023,04,27,16,01,15.10
2023,04,27,16,02,15.10
2023,04,27,16,03,15.10
2023,04,27,16,04,15.10
2023,04,27,16,05,15.10
2023,04,27,16,06,15.10
2023,04,27,16,07,15.10
2023,04,27,16,08,15.10
2023,04,27,16,09,15.10
2023,04,27,16,10,15.20
2023,04,27,16,11,15.30
2023,04,27,16,12,15.30
2023,04,27,16,13,15.30
2023,04,27,16,14,15.40
2023,04,27,16,15,15.50
2023,04,27,16,16,15.50
2023,04,27,16,17,15.60
2023,04,27,16,18,15.50
2023,04,27,16,19,15.50
2023,04,27,16,20,15.50
2023,04,27,16,21,15.40
2023,04,27,16,22,15.40
2023,04,27,16,23,15.40
2023,04,27,16,24,15.40
2023,04,27,16,25,15.40
2023,04,27,16,26,15.40
2023,04,27,16,27,15.50
2023,04,27,16,28,15.50
2023,04,27,16,29,15.50
2023,04,27,16,30,15.50
2023,04,27,16,31,15.50
2023,04,27,16,32,15.50
2023,04,27,16,33,15.50
2023,04,27,16,34,15.60
2023,04,27,16,35,15.60
2023,04,27,16,36,15.60
2023,04,27,16,37,15.50
2023,04,27,16,38,15.50
2023,04,27,16,39,15.40
2023,04,27,16,40,15.40
2023,04,27,16,41,15.40
2023,04,27,16,42,15.40
2023,04,27,16,43,15.30
2023,04,27,16,44,15.30
2023,04,27,16,45,15.30
2023,04,27,16,46,15.30
2023,04,27,16,47,15.40
2023,04,27,16,48,15.40
2023,04,27,16,49,15.40
2023,04,27,16,50,15.40
2023,04,27,16,51,15.40
2023,04,27,16,52,15.40
2023,04,27,16,53,15.40
2023,04,27,16,54,15.40
2023,04,27,16,55,15.40
2023,04,27,16,56,15.40
2023,04,27,16,57,15.40
2023,04,27,16,58,15.40
2023,04,27,16,59,15.40
2023,04,27,17,00,15.40
2023,04,27,17,01,15.40
2023,04,27,17,02,15.40
2023,04,27,17,03,15.40
2023,04,27,17,04,15.40
2023,04,27,17,05,15.40
2023,04,27,17,06,15.40
2023,04,27,17,07,15.40
2023,04,27,17,08,15.50
2023,04,27,17,09,15.60
2023,04,27,17,10,15.50
2023,04,27,17,11,15.50
2023,04,27,17,12,15.60
2023,04,27,17,13,15.60
2023,04,27,17,14,15.50
2023,04,27,17,15,15.50
2023,04,27,17,16,15.50
2023,04,27,17,17,15.50
2023,04,27,17,18,15.50
2023,04,27,17,19,15.50
2023,04,27,17,20,15.50
2023,04,27,17,21,15.50
2023,04,27,17,22,15.50
2023,04,27,17,23,15.50
2023,04,27,17,24,15.60
2023,04,27,17,25,15.60
2023,04,27,17,26,15.60
2023,04,27,17,27,15.70
2023,04,27,17,28,15.70
2023,04,27,17,29,15.70
2023,04,27,17,30,15.70
2023,04,27,17,31,15.70
2023,04,27,17,32,15.70
2023,04,27,17,33,15.70
2023,04,27,17,34,15.60
2023,04,27,17,35,15.60
2023,04,27,17,36,15.60
2023,04,27,17,37,15.60
2023,04,27,17,38,15.70
2023,04,27,17,39,15.60
2023,04,27,17,40,15.60
2023,04,27,17,41,15.60
2023,04,27,17,42,15.60
2023,04,27,17,43,15.50
2023,04,27,17,44,15.50
2023,04,27,17,45,15.50
2023,04,27,17,46,15.40
2023,04,27,17,47,15.40
2023,04,27,17,48,15.40
2023,04,27,17,49,15.40
2023,04,27,17,50,15.40
2023,04,27,17,51,15.40
2023,04,27,17,52,15.40
2023,04,27,17,53,15.40
2023,04,27,17,54,15.40
2023,04,27,17,55,15.40
2023,04,27,17,56,15.40
2023,04,27,17,57,15.40
2023,04,27,17,58,15.40
2023,04,27,17,59,15.40
2023,04,27,18,00,15.40
2023,04,27,18,01,15.40
2023,04,27,18,02,15.40
2023,04,27,18,03,15.40
2023,04,27,18,04,15.40
2023,04,27,18,05,15.40
2023,04,27,18,06,15.40
2023,04,27,18,07,15.40
2023,04,27,18,08,15.40
2023,04,27,18,09,15.40
2023,04,27,18,10,15.40
2023,04,27,18,11,15.40
2023,04,27,18,12,15.50
2023,04,27,18,13,15.50
2023,04,27,18,14,15.50
2023,04,27,18,15,15.50
2023,04,27,18,16,15.50
2023,04,27,18,17,15.50
2023,04,27,18,18,15.50
2023,04,27,18,19,15.50
2023,04,27,18,20,15.50
2023,04,27,18,21,15.50
2023,04,27,18,22,15.50
2023,04,27,18,23,15.50
2023,04,27,18,24,15.50
2023,04,27,18,25,15.50
2023,04,27,18,26,15.50
